Change the Weather History Date:

Wednesday, November 7, 2012

  Actual Average Record
Temperature  
Mean Temperature 69 °F -  
Max Temperature 79 °F - - ()
Min Temperature 59 °F - - ()
Cooling Degree Days 4    
Growing Degree Days 19 (Base 50)    
Moisture  
Dew Point 59 °F    
Average Humidity 83    
Maximum Humidity 94    
Minimum Humidity 62    
Precipitation  
Precipitation 0.00 in - - ()
Sea Level Pressure  
Sea Level Pressure 30.01 in    
Wind  
Wind Speed 6 mph ()    
Max Wind Speed 21 mph    
Max Gust Speed -    
Visibility 4.4 miles    
Events      
T = Trace of Precipitation, MM = Missing Value Source: Averaged Metar Reports

Daily Weather History Graph

Daily Weather History Graph

Search for Another Location

Airport or City:

Trip Planner

Search our weather history database for the weather conditions in past years. The results will help you decide how hot, cold, wet, or windy it might be!

Date:

Astronomy

Nov. 07, 2012 Rise Set
Actual Time 6:47 AM WET 5:24 PM WET
Civil Twilight 6:20 AM WET 5:50 PM WET
Nautical Twilight 5:51 AM WET 6:19 PM WET
Astronomical Twilight 5:21 AM WET 6:49 PM WET
Moon No Moon Rise 1:07 PM WET (11/7)
Length of Visible Light 11h 29m
Length of Day
10h 36m
Last Quarter, 45% of the Moon is Illuminated
Nov 7
Last Quarter
Nov 13
New
Nov 20
First Quarter
Nov 28
Full
Dec 6
Last Quarter

Hourly Weather History & Observations

Time (WET) Temp. Dew Point Humidity Pressure Visibility Wind Dir Wind Speed Gust Speed Precip Events Conditions
12:00 AM 62 °F 60 °F 92% 30.00 in 5 mi WSW 4.6 mph - -   Partly Cloudy
12:00 AM 62.6 °F 60.8 °F 94% 30.04 in 5.0 mi WSW 4.6 mph - N/A   Scattered Clouds
1:00 AM 62.6 °F 60.8 °F 94% 30.04 in 5.0 mi WSW 4.6 mph - N/A   Partly Cloudy
2:00 AM 62.6 °F 60.8 °F 94% 30.04 in 3.7 mi WSW 3.5 mph - N/A   Partly Cloudy
3:00 AM 60 °F 58 °F 90% 30.00 in 4 mi WSW 2.3 mph - -   Scattered Clouds
3:00 AM 59.0 °F 57.2 °F 94% 30.04 in 3.7 mi WSW 2.3 mph - N/A   Partly Cloudy
4:00 AM 62.6 °F 60.8 °F 94% 30.04 in 3.7 mi NE 2.3 mph - N/A   Scattered Clouds
4:40 AM 60.8 °F 59.0 °F 94% 30.01 in 1.9 mi NE 2.3 mph - N/A   Mostly Cloudy
5:00 AM 60.8 °F 59.0 °F 94% 30.01 in 1.9 mi ENE 2.3 mph - N/A   Mostly Cloudy
6:00 AM 61 °F 59 °F 91% 29.96 in 2 mi East 9.2 mph - -   Mist
6:00 AM 60.8 °F 59.0 °F 94% 30.01 in 1.9 mi East 9.2 mph - N/A   Mostly Cloudy
6:30 AM 60.8 °F 59.0 °F 94% 29.98 in 3.1 mi East 13.8 mph - N/A   Scattered Clouds
7:00 AM 60.8 °F 57.2 °F 88% 29.98 in 3.1 mi East 4.6 mph - N/A   Scattered Clouds
8:00 AM 60.8 °F 57.2 °F 88% - 5.0 mi East 18.4 mph - N/A   Scattered Clouds
9:00 AM 61 °F 58 °F 87% 29.92 in 3 mi East 15.0 mph - -   Partly Cloudy
9:00 AM 60.8 °F 59.0 °F 94% 29.95 in 3.1 mi East 15.0 mph - N/A   Scattered Clouds
10:00 AM 66.2 °F 59.0 °F 78% 29.98 in 5.0 mi East 17.3 mph - N/A   Scattered Clouds
11:00 AM 73.4 °F 60.8 °F 65% 29.98 in 6.2 mi East 12.7 mph - N/A   Scattered Clouds
12:00 PM 72 °F 62 °F 63% 29.94 in 6 mi WNW 16.1 mph - -   Scattered Clouds
12:00 PM 71.6 °F 62.6 °F 73% 30.04 in 6.2 mi WNW 16.1 mph - N/A   Scattered Clouds
1:00 PM 68.0 °F 60.8 °F 78% 30.04 in 6.2 mi NW 20.7 mph - N/A   Scattered Clouds
2:00 PM 66.2 °F 60.8 °F 83% 30.04 in 5.0 mi NW 9.2 mph - N/A   Scattered Clouds
3:00 PM 68 °F 59 °F 65% 29.96 in 5 mi West 3.5 mph - -   Partly Cloudy
3:00 PM 68.0 °F 59.0 °F 73% 30.04 in 5.0 mi West 3.5 mph - N/A   Scattered Clouds
4:00 PM 69.8 °F 59.0 °F 68% 30.01 in 5.0 mi West 2.3 mph - N/A   Scattered Clouds
5:00 PM 68.0 °F 59.0 °F 73% 30.04 in 5.0 mi NW 5.8 mph - N/A   Scattered Clouds
6:00 PM 67 °F 57 °F 62% 29.97 in 5 mi NW 3.5 mph - -   Mostly Cloudy
6:00 PM 68.0 °F 57.2 °F 68% 30.04 in 5.0 mi NW 3.5 mph - N/A   Scattered Clouds
7:00 PM 68.0 °F 59.0 °F 73% 30.04 in 5.0 mi Calm Calm - N/A   Scattered Clouds
8:00 PM 66.2 °F 59.0 °F 78% 30.04 in 5.0 mi ESE 3.5 mph - N/A   Scattered Clouds
9:00 PM 63 °F 59 °F 81% 29.96 in 6 mi East 4.6 mph - -   Scattered Clouds
9:00 PM 62.6 °F 59.0 °F 88% 30.01 in 6.2 mi East 4.6 mph - N/A   Partly Cloudy
10:00 PM 60.8 °F 57.2 °F 88% 30.01 in - East 4.6 mph - N/A   Clear
11:00 PM 60.8 °F 57.2 °F 88% 30.01 in - ESE 4.6 mph - N/A   Clear